Location: Aciu?a
(46.2833°N, 22.4500°E)
Time: 12:37:40
(UTC+00:00)

YAOGAN 1 - Pass Details

Date: 25 October 2021
Orbit: 618 x 620 km, 97.9° (Epoch: 06 December)

Event Time Altitude Azimuth Distance (km) Brightness Sun altitude
Rises 17:22:43 0° 171° (S) 2,883 5.9 -20.7°
Reaches altitude 10° 17:24:54 10° 173° (S) 1,982 5.0 -21.1°
Maximum altitude 17:29:12 71° 258° (WSW) 662 2.8 -21.8°
Drops below altitude 10° 17:33:33 10° 343° (NNW) 1,998 5.4 -22.6°
Sets 17:35:45 0° 345° (NNW) 2,909 6.3 -22.9°
